• In Belarus
  • List of Countries
  • For 7 days
  • Water Temperature
  • Satellite Maps
  • Weather Map
  • Weather Widgets
  • user-avatar
    Login

    Hourly Weather Cape Breton Island

    Today, 20 May, Sunday

    Time Temperature Precipitation Wind Pressure Humidity
    00:00 +4°C° 0 mm 4 mps 732 mmHg 59%
    01:00 +4°C° 0 mm 4 mps 731 mmHg 60%
    02:00 +4°C° 0 mm 3 mps 730 mmHg 66%
    03:00 +4°C° 0.5 mm 4 mps 729 mmHg 74%
    04:00 +5°C° 0.5 mm 5 mps 727 mmHg 83%
    05:00 +5°C° 0.5 mm 6 mps 726 mmHg 91%
    06:00 +6°C° 1.8 mm 7 mps 725 mmHg 92%
    07:00 +9°C° 1.8 mm 8 mps 724 mmHg 93%
    08:00 +10°C° 0 mm 6 mps 721 mmHg 93%
    09:00 +11°C° 0.2 mm 7 mps 721 mmHg 93%
    10:00 +12°C° 0.2 mm 7 mps 721 mmHg 93%
    11:00 +12°C° 0.2 mm 8 mps 720 mmHg 93%
    12:00 +12°C° 0.6 mm 7 mps 720 mmHg 93%
    13:00 +12°C° 0.6 mm 7 mps 719 mmHg 93%
    14:00 +12°C° 0.6 mm 7 mps 719 mmHg 93%
    15:00 +13°C° 1.8 mm 6 mps 719 mmHg 94%
    16:00 +11°C° 1.8 mm 6 mps 719 mmHg 95%
    17:00 +10°C° 1.8 mm 5 mps 719 mmHg 96%
    18:00 +10°C° 0.3 mm 5 mps 720 mmHg 96%
    19:00 +9°C° 0.3 mm 5 mps 720 mmHg 96%
    20:00 +10°C° 0.3 mm 4 mps 720 mmHg 96%
    21:00 +8°C° 0 mm 4 mps 721 mmHg 96%
    22:00 +6°C° 0 mm 4 mps 721 mmHg 95%
    23:00 +5°C° 0 mm 3 mps 721 mmHg 94%

    Tomorrow, 21 May, Monday

    Time Temperature Precipitation Wind Pressure Humidity
    00:00 +5°C° 0 mm 3 mps 721 mmHg 92%
    01:00 +4°C° 0 mm 4 mps 722 mmHg 90%
    02:00 +3°C° 0 mm 4 mps 722 mmHg 89%
    03:00 +1°C° 0 mm 4 mps 722 mmHg 89%
    04:00 +2°C° 0 mm 3 mps 723 mmHg 89%
    05:00 +1°C° 0 mm 3 mps 723 mmHg 89%
    06:00 +3°C° 0 mm 3 mps 723 mmHg 80%
    07:00 +5°C° 0 mm 3 mps 724 mmHg 71%
    08:00 +8°C° 0 mm 3 mps 724 mmHg 61%
    09:00 +8°C° 0 mm 4 mps 724 mmHg 56%
    10:00 +10°C° 0 mm 5 mps 724 mmHg 50%
    11:00 +11°C° 0 mm 6 mps 725 mmHg 44%
    12:00 +13°C° 0 mm 6 mps 724 mmHg 43%
    13:00 +12°C° 0 mm 7 mps 724 mmHg 41%
    14:00 +14°C° 0 mm 7 mps 724 mmHg 40%
    15:00 +11°C° 0.2 mm 6 mps 724 mmHg 50%
    16:00 +10°C° 0.2 mm 6 mps 724 mmHg 60%
    17:00 +8°C° 0.2 mm 5 mps 724 mmHg 70%
    18:00 +6°C° 0 mm 4 mps 724 mmHg 73%
    19:00 +5°C° 0 mm 4 mps 725 mmHg 77%
    20:00 +3°C° 0 mm 3 mps 725 mmHg 80%
    21:00 +2°C° 0 mm 3 mps 726 mmHg 79%
    22:00 +2°C° 0 mm 2 mps 726 mmHg 77%
    23:00 +1°C° 0 mm 2 mps 727 mmHg 76%

    Day after tomorrow, 22 May, Tuesday

    Time Temperature Precipitation Wind Pressure Humidity
    00:00 +1°C° 0 mm 2 mps 727 mmHg 74%
    01:00 +1°C° 0 mm 2 mps 727 mmHg 73%
    02:00 -1°C° 0 mm 3 mps 728 mmHg 71%
    03:00 -1°C° 0 mm 3 mps 728 mmHg 71%
    04:00 0°C° 0 mm 3 mps 728 mmHg 70%
    05:00 0°C° 0 mm 3 mps 728 mmHg 70%
    06:00 +2°C° 0 mm 3 mps 729 mmHg 62%
    07:00 +4°C° 0 mm 3 mps 730 mmHg 55%
    08:00 +7°C° 0 mm 3 mps 730 mmHg 47%
    09:00 +8°C° 0 mm 3 mps 730 mmHg 44%
    10:00 +9°C° 0 mm 3 mps 731 mmHg 40%
    11:00 +11°C° 0 mm 3 mps 731 mmHg 37%
    12:00 +11°C° 0 mm 3 mps 731 mmHg 35%
    13:00 +12°C° 0 mm 3 mps 730 mmHg 34%
    14:00 +13°C° 0 mm 3 mps 730 mmHg 32%
    15:00 +13°C° 0 mm 4 mps 729 mmHg 36%
    16:00 +12°C° 0 mm 4 mps 729 mmHg 40%
    17:00 +12°C° 0 mm 4 mps 728 mmHg 44%
    18:00 +9°C° 0 mm 5 mps 727 mmHg 53%
    19:00 +7°C° 0 mm 5 mps 727 mmHg 62%
    20:00 +5°C° 0 mm 5 mps 726 mmHg 71%
    21:00 +5°C° 0 mm 6 mps 725 mmHg 76%
    22:00 +5°C° 0 mm 6 mps 725 mmHg 81%
    23:00 +5°C° 0 mm 6 mps 724 mmHg 86%

    23 May, Wednesday

    Time Temperature Precipitation Wind Pressure Humidity
    00:00 +7°C° 0 mm 6 mps 724 mmHg 85%
    01:00 +7°C° 0 mm 6 mps 724 mmHg 84%
    02:00 +8°C° 0 mm 6 mps 723 mmHg 83%
    03:00 +8°C° 0.4 mm 6 mps 723 mmHg 86%
    04:00 +7°C° 0.4 mm 5 mps 723 mmHg 90%
    05:00 +7°C° 0.4 mm 5 mps 722 mmHg 93%
    06:00 +8°C° 0 mm 5 mps 722 mmHg 85%
    07:00 +9°C° 0 mm 5 mps 722 mmHg 77%
    08:00 +10°C° 0 mm 5 mps 722 mmHg 69%
    09:00 +12°C° 0 mm 4 mps 721 mmHg 62%
    10:00 +13°C° 0 mm 4 mps 721 mmHg 56%
    11:00 +16°C° 0 mm 3 mps 721 mmHg 50%
    12:00 +16°C° 0 mm 3 mps 721 mmHg 51%
    13:00 +16°C° 0 mm 3 mps 721 mmHg 51%
    14:00 +17°C° 0 mm 4 mps 720 mmHg 52%
    15:00 +14°C° 0 mm 4 mps 720 mmHg 58%
    16:00 +13°C° 0 mm 4 mps 720 mmHg 65%
    17:00 +11°C° 0 mm 4 mps 720 mmHg 71%
    18:00 +8°C° 0.4 mm 4 mps 720 mmHg 78%
    19:00 +6°C° 0.4 mm 4 mps 720 mmHg 84%
    20:00 +4°C° 0.4 mm 4 mps 721 mmHg 91%
    21:00 +4°C° 0.2 mm 4 mps 721 mmHg 91%
    22:00 +3°C° 0.2 mm 4 mps 721 mmHg 92%
    23:00 +1°C° 0.2 mm 4 mps 721 mmHg 93%

    24 May, Thursday

    Time Temperature Precipitation Wind Pressure Humidity
    00:00 +1°C° 0 mm 4 mps 721 mmHg 93%
    01:00 0°C° 0 mm 4 mps 721 mmHg 92%
    02:00 -1°C° 0 mm 5 mps 721 mmHg 92%
    03:00 0°C° 0 mm 5 mps 722 mmHg 92%
    04:00 0°C° 0 mm 5 mps 722 mmHg 92%
    05:00 0°C° 0 mm 5 mps 722 mmHg 92%
    06:00 +1°C° 0 mm 5 mps 723 mmHg 83%
    07:00 +2°C° 0 mm 6 mps 724 mmHg 73%
    08:00 +3°C° 0 mm 6 mps 724 mmHg 64%
    09:00 +4°C° 0 mm 6 mps 725 mmHg 56%
    10:00 +5°C° 0 mm 6 mps 725 mmHg 49%
    11:00 +7°C° 0 mm 6 mps 726 mmHg 42%
    12:00 +7°C° 0 mm 6 mps 726 mmHg 42%
    13:00 +7°C° 0 mm 5 mps 726 mmHg 42%
    14:00 +7°C° 0 mm 5 mps 726 mmHg 43%
    15:00 +7°C° 0 mm 5 mps 726 mmHg 45%
    16:00 +6°C° 0 mm 4 mps 726 mmHg 47%
    17:00 +6°C° 0 mm 4 mps 726 mmHg 49%
    18:00 +4°C° 0 mm 3 mps 726 mmHg 56%
    19:00 +3°C° 0 mm 2 mps 726 mmHg 64%
    20:00 +2°C° 0 mm 1 mps 726 mmHg 71%
    21:00 +2°C° 0 mm 2 mps 726 mmHg 69%
    22:00 +2°C° 0 mm 2 mps 725 mmHg 67%
    23:00 +2°C° 0 mm 2 mps 725 mmHg 65%

    25 May, Friday

    Time Temperature Precipitation Wind Pressure Humidity
    00:00 +2°C° 0.1 mm 3 mps 724 mmHg 68%
    01:00 +1°C° 0.1 mm 4 mps 724 mmHg 71%
    02:00 +1°C° 0.1 mm 5 mps 723 mmHg 74%
    03:00 +2°C° 0.4 mm 5 mps 722 mmHg 77%
    04:00 +2°C° 0.4 mm 5 mps 722 mmHg 81%
    05:00 +2°C° 0.4 mm 6 mps 721 mmHg 84%
    06:00 +2°C° 1.3 mm 6 mps 720 mmHg 87%
    07:00 +2°C° 1.3 mm 7 mps 720 mmHg 90%
    08:00 +2°C° 1.3 mm 7 mps 719 mmHg 92%
    09:00 +3°C° 0.3 mm 7 mps 719 mmHg 92%
    10:00 +4°C° 0.3 mm 7 mps 718 mmHg 91%
    11:00 +5°C° 0.3 mm 7 mps 718 mmHg 90%
    12:00 +6°C° 0.1 mm 7 mps 718 mmHg 87%
    13:00 +8°C° 0.1 mm 6 mps 718 mmHg 83%
    14:00 +9°C° 0.1 mm 6 mps 718 mmHg 80%
    15:00 +10°C° 0.1 mm 5 mps 718 mmHg 77%
    16:00 +11°C° 0.1 mm 4 mps 718 mmHg 75%
    17:00 +12°C° 0.1 mm 3 mps 718 mmHg 73%
    18:00 +12°C° 0.1 mm 2 mps 718 mmHg 78%
    19:00 +9°C° 0.1 mm 2 mps 719 mmHg 83%
    20:00 +9°C° 0.1 mm 1 mps 719 mmHg 88%
    21:00 +9°C° 0 mm 1 mps 719 mmHg 87%
    22:00 +8°C° 0 mm 2 mps 719 mmHg 86%
    23:00 +8°C° 0 mm 2 mps 719 mmHg 85%
    Show more